FW8889 Weather Reports


time (UTC)temp
F
wind
direction
speed
knots
gust
knots
rain 1hr
in
rain 24hr
in
rain mn
in
humidity
%
barometer
mb
20260901054555 64 0 0.0 0.0 0.00 0.00 0.00 85 1018.7
20260901053100 64 0 0.0 0.0 0.00 0.00 0.00 85 1018.7
20260901051554 64 0 0.0 0.0 0.00 0.00 0.00 85 1018.6
20260901050059 65 0 0.0 0.0 0.00 0.00 0.00 84 1018.6
20260901044604 65 0 0.0 0.9 0.00 0.00 0.00 84 1018.7
20260901043053 65 0 0.0 0.9 0.00 0.00 0.00 84 1018.7
20260901041620 65 0 0.0 0.9 0.00 0.00 0.00 84 1018.7
20260901040137 65 0 0.0 0.0 0.00 0.00 0.00 84 1018.8
20260901034555 64 0 0.0 0.0 0.00 0.00 0.00 85 1018.8
20260901033052 64 0 0.0 0.0 0.00 0.00 0.00 84 1018.8
20260901031551 63 0 0.0 0.0 0.00 0.00 0.00 84 1018.7
20260901030106 63 0 0.0 0.0 0.00 0.00 0.00 84 1018.7
20260901024555 63 0 0.0 0.0 0.00 0.00 0.00 83 1018.6
20260901023100 63 0 0.0 0.0 0.00 0.00 0.00 82 1018.8
20260901021550 64 0 0.0 0.0 0.00 0.00 0.00 82 1018.8
20260901020055 64 0 0.0 0.0 0.00 0.00 0.00 81 1018.7
20260901014548 64 0 0.0 0.0 0.00 0.00 0.00 80 1018.9
20260901013058 65 0 0.0 0.0 0.00 0.00 0.00 80 1018.9
20260901011549 65 0 0.0 0.9 0.00 0.00 0.00 79 1019.0
20260901010115 65 0 0.0 0.9 0.00 0.00 0.00 78 1018.9
20260901004556 65 0 0.0 0.9 0.00 0.00 0.00 77 1018.8
20260901003052 66 0 0.0 0.9 0.00 0.00 0.00 77 1018.8
20260901001558 66 0 0.0 0.9 0.00 0.00 0.00 76 1018.7
20260901000057 66 0 0.0 0.9 0.00 0.00 0.00 75 1018.8
20260831234559 67 0 0.0 0.9 0.00 0.00 0.00 74 1018.8
20260831233049 67 0 0.0 1.7 0.00 0.00 0.00 72 1019.0
20260831231555 68 177 0.0 1.7 0.00 0.00 0.00 70 1019.0
20260831230109 68 0 0.0 0.9 0.00 0.00 0.00 68 1019.1
20260831224555 69 0 0.0 1.7 0.00 0.00 0.00 66 1019.3
20260831223101 69 0 0.0 2.6 0.00 0.00 0.00 64 1019.3
20260831221559 70 182 0.9 2.6 0.00 0.00 0.00 64 1019.3
20260831220055 71 182 0.0 2.6 0.00 0.00 0.00 63 1019.1
20260831214602 72 202 0.0 2.6 0.00 0.00 0.00 63 1019.1
20260831213049 73 153 0.9 3.5 0.00 0.00 0.00 62 1019.2
20260831211544 74 154 1.7 4.3 0.00 0.00 0.00 60 1019.2
20260831210053 75 166 1.7 4.3 0.00 0.00 0.00 58 1019.2
20260831204551 77 124 0.9 2.6 0.00 0.00 0.00 55 1019.2
20260831203049 79 0 0.0 3.5 0.00 0.00 0.00 54 1019.2
20260831201556 81 0 0.0 2.6 0.00 0.00 0.00 44 1019.2
20260831200105 80 140 0.0 2.6 0.00 0.00 0.00 40 1019.3
20260831194616 80 99 0.0 3.5 0.00 0.00 0.00 40 1019.2
20260831193050 79 109 0.0 2.6 0.00 0.00 0.00 44 1019.2
20260831191555 78 342 0.9 2.6 0.00 0.00 0.00 54 1019.6
20260831190100 77 101 0.9 3.5 0.00 0.00 0.00 56 1019.7
20260831184551 77 290 0.9 6.1 0.00 0.00 0.00 53 1019.9
20260831183057 76 201 0.9 4.3 0.00 0.00 0.00 58 1019.9
20260831181608 76 174 0.9 4.3 0.00 0.00 0.00 55 1020.0
20260831180111 77 330 0.0 1.7 0.00 0.00 0.00 48 1020.0
20260831174559 76 36 0.0 1.7 0.00 0.00 0.00 46 1020.0
20260831173102 75 5 0.9 2.6 0.00 0.00 0.00 50 1020.1
20260831171604 74 0 0.0 1.7 0.00 0.00 0.00 49 1020.3
20260831170108 74 297 0.0 2.6 0.00 0.00 0.00 50 1020.6
20260831164559 73 81 0.0 2.6 0.00 0.00 0.00 56 1020.8
20260831163103 73 320 0.0 1.7 0.00 0.00 0.00 53 1020.7
20260831161555 72 0 0.0 2.6 0.00 0.00 0.00 56 1021.0
20260831160051 72 0 0.0 0.9 0.00 0.00 0.00 54 1021.1
20260831154623 71 0 0.0 1.7 0.00 0.00 0.00 53 1021.2
20260831153050 70 0 0.0 2.6 0.00 0.00 0.00 55 1021.4
20260831151605 70 0 0.0 1.7 0.00 0.00 0.00 59 1021.4
20260831150053 69 0 0.0 1.7 0.00 0.00 0.00 59 1021.4
20260831144550 69 0 0.0 1.7 0.00 0.00 0.00 60 1021.6
20260831143055 68 0 0.0 1.7 0.00 0.00 0.00 60 1021.6
20260831141555 67 0 0.0 0.9 0.00 0.00 0.00 61 1021.5
20260831140056 67 0 0.0 0.9 0.00 0.00 0.00 63 1021.5
20260831134554 66 0 0.0 0.9 0.00 0.00 0.00 65 1021.6
20260831133050 65 0 0.0 0.9 0.00 0.00 0.00 70 1021.5
20260831131547 64 0 0.0 0.9 0.00 0.00 0.00 72 1021.4
20260831130107 63 0 0.0 0.9 0.00 0.00 0.00 74 1021.3
20260831124601 62 0 0.0 1.7 0.00 0.00 0.00 79 1021.3
20260831123052 61 0 0.0 1.7 0.00 0.00 0.00 85 1021.2
20260831121549 60 0 0.0 0.9 0.00 0.00 0.00 86 1021.0
20260831120057 59 0 0.0 1.7 0.00 0.00 0.00 84 1020.9
20260831114557 58 0 0.0 0.0 0.00 0.00 0.00 83 1020.8
20260831113054 58 0 0.0 0.0 0.00 0.00 0.00 83 1020.8
20260831111550 58 0 0.0 0.0 0.00 0.00 0.00 84 1020.8
20260831110059 58 0 0.0 0.0 0.00 0.00 0.00 84 1020.9
20260831104610 58 0 0.0 0.0 0.00 0.00 0.00 84 1020.7
20260831103053 58 0 0.0 0.0 0.00 0.00 0.00 85 1020.7
20260831101552 59 0 0.0 0.0 0.00 0.00 0.00 85 1020.5
20260831100122 59 0 0.0 0.0 0.00 0.00 0.00 85 1020.4
20260831094553 59 0 0.0 0.0 0.00 0.00 0.00 85 1020.2
20260831093051 60 0 0.0 0.0 0.00 0.00 0.00 85 1020.0
20260831091555 60 0 0.0 0.0 0.00 0.00 0.00 85 1019.8
20260831090056 60 0 0.0 0.0 0.00 0.00 0.00 85 1019.7
20260831084604 61 0 0.0 0.0 0.00 0.00 0.00 86 1019.5
20260831083052 61 0 0.0 0.0 0.00 0.00 0.00 85 1019.5
20260831081600 61 0 0.0 0.0 0.00 0.00 0.00 86 1019.2
20260831080105 62 0 0.0 0.0 0.00 0.00 0.00 86 1019.2
20260831074555 63 0 0.0 0.0 0.00 0.00 0.00 85 1019.1
20260831073054 63 0 0.0 0.0 0.00 0.00 0.00 85 1018.8
20260831071601 64 0 0.0 0.0 0.00 0.00 0.00 84 1018.8
20260831070113 64 0 0.0 0.0 0.00 0.00 0.00 84 1018.8
20260831064554 65 0 0.0 0.9 0.00 0.00 0.00 84 1018.7
20260831063053 66 0 0.0 0.0 0.00 0.00 0.00 83 1018.6
20260831061552 66 0 0.0 0.0 0.00 0.00 0.00 82 1018.4
20260831060058 67 0 0.0 0.9 0.00 0.00 0.00 81 1018.4